sat.trackr.live / text

‹ back to catalog

HULIANWANG DIGUI-25

NORAD 63692 · 2025-086F

PAYLOAD ACTIVE UNKNOWN

§ Identity

Operator
Country
PRC
Launch date
2025-04-28
Launch site
WSC
Launch vehicle
Mass (kg)
RCS (m²)

External: N2YO · Heavens-Above · Gunter

§ Orbital elements

Epoch: 2026-05-25T04:17:38.344128Z

Period
108.73 min
Inclination
86.5013°
Eccentricity
0.0001516
Mean motion
13.24407767 rev/d
Perigee alt
1,166.8 km
Apogee alt
1,169.1 km
Semi-major
7,546.1 km
B*
6.2704e-5
RAAN
320.7891°
Arg perigee
82.2554°
Mean anomaly
277.8752°
Rev number
5,181

§ Raw data

HULIANWANG DIGUI-251 63692U 25086F   26145.17891602  .00000042  00000+0  62704-4 0  99972 63692  86.5013 320.7891 0001516  82.2554 277.8752 13.24407767 51814

JSON: /api/v1/satellites/63692 · /tle

For live sub-satellite position, see the globe view (requires WebGL).

§ Visibility from observer

Set your observer location to see the next 7 days of passes ≥ 10°. The values pass through the URL so the page stays shareable.

No JS? Fill the form by hand. The geolocation button needs JavaScript.